Погода в Унаватуне

Шри-Ланка     6°02′20″N   80°12′57″E
темп.,
°C
ветер,
м/с
пор.,
м/с
влажн.,
%
обл.,
%
осадки,
мм/ч
давл.,
гПа
погр.,
м
17 мая, пн
пн1723:30+28сз358361 0.2 1009417
02:30+27зсз35825 0.3 1007467
05:30+27зсз348273 0.3 1008499
08:30+29зсз347691 0.3 1010733
11:30+30з457156 0.4 1009949
14:30+30з567299 0.0 1007899
17:30+29зсз577895 0.0 1007806
20:30+28зсз468337 0.0 1009585
18 мая, вт
вт1823:30+28зсз468398 0.1 1009526
02:30+28зсз468399 0.2 1007599
05:30+28зсз4681100 0.3 1008610
08:30+29зсз5675100 0.2 1010868
11:30+30зсз5670100 0.3 1009965
14:30+30з567299 0.2 1007840
17:30+29з5679100 0.7 1007732
20:30+28з4681100 0.2 1009558
19 мая, ср
ср1923:30+28з5781100 0.5 1010654
02:30+27з468265 1.7 1008599
05:30+27з4682100 3.4 1008575
08:30+28з56797 2.6 1010830
11:30+29з577611 5.2 1009882
14:30+29з567796 2.5 1007821
17:30+28з4680100 4.8 1007483
20:30+28з4681100 0.3 1009598
20 мая, чт
чт2023:30+27з4784100 2.9 1009508
02:30+27з468391 3.1 1008538
05:30+27з4683100 5.4 1009553
08:30+28з5680100 1.6 1011758
11:30+29з567784 3.2 1010866
14:30+29з5777100 2.6 1008813
17:30+28зюз5782100 6.8 1008584
20:30+28з5783100 0.8 1010598
21 мая, пт
пт2123:30+28з578493 1.3 1010576
02:30+28зюз5883100 0.8 1008606
05:30+28зюз6882100 1.8 1009684
08:30+28зюз5782100 3.7 1011712
11:30+28зюз5681100 7.8 1011625
14:30+28зюз4681100 3.3 1008748
17:30+28зюз4682100 5.7 1009509
20:30+28зюз5682100 0.2 1010615